Weather History for Columbia Owens, SC

Change the Weather History Date:

Sunday, March 10, 2013

  Actual Average Record
Temperature  
Mean Temperature 55 °F 55 °F  
Max Temperature 71 °F 67 °F 78 °F (2009)
Min Temperature 38 °F 43 °F 32 °F (2001)
Degree Days  
Heating Degree Days 10 10  
Month to date heating degree days 180 116  
Since 1 July heating degree days 1838 2045  
Cooling Degree Days 0 0  
Month to date cooling degree days 0 0  
Year to date cooling degree days 24 3  
Growing Degree Days 4 (Base 50)    
Moisture  
Dew Point 36 °F    
Average Humidity 54    
Maximum Humidity 92    
Minimum Humidity 23    
Precipitation  
Precipitation 0.00 in 0.13 in 0.05 in (2011)
Month to date precipitation 0.02 1.31  
Year to date precipitation 6.65 8.59  
Sea Level Pressure  
Sea Level Pressure 30.24 in    
Wind  
Wind Speed 2 mph (SE)    
Max Wind Speed 13 mph    
Max Gust Speed 17 mph    
Visibility 10 miles    
Events      
T = Trace of Precipitation, MM = Missing Value Source: NWS Daily Summary

Daily Weather History Graph

Daily Weather History Graph

Search for Another Location

Airport:

Trip Planner

Search our weather history database for the weather conditions in past years. The results will help you decide how hot, cold, wet, or windy it might be!

Date:

Astronomy

Mar. 10, 2013 Rise Set
Actual Time 7:40 AM EDT 7:27 PM EDT
Civil Twilight 7:15 AM EDT 7:52 PM EDT
Nautical Twilight 6:46 AM EDT 8:21 PM EDT
Astronomical Twilight 6:17 AM EDT 8:51 PM EDT
Moon 6:38 AM EDT (3/10) 6:34 PM EDT (3/10)
Length of Visible Light 12h 37m
Length of Day
11h 47m
Waning Crescent, 2% of the Moon is Illuminated
Mar 10
Waning Crescent
Mar 11
New
Mar 19
First Quarter
Mar 27
Full
Apr 3
Last Quarter

Hourly Weather History & Observations

Time (EDT) Temp. Dew Point Humidity Pressure Visibility Wind Dir Wind Speed Gust Speed Precip Events Conditions
12:53 AM 43.0 °F 37.0 °F 80% 30.28 in 10.0 mi Calm Calm - N/A   Clear
1:53 AM 41.0 °F 37.0 °F 86% 30.28 in 10.0 mi Calm Calm - N/A   Clear
3:53 AM 39.9 °F 36.0 °F 86% 30.27 in 10.0 mi Calm Calm - N/A   Clear
4:53 AM 39.9 °F 36.0 °F 86% 30.26 in 10.0 mi Calm Calm - N/A   Clear
5:53 AM 39.0 °F 35.1 °F 86% 30.27 in 10.0 mi Calm Calm - N/A   Clear
6:53 AM 37.9 °F 35.1 °F 89% 30.27 in 10.0 mi Calm Calm - N/A   Clear
8:53 AM 43.0 °F 37.9 °F 82% 30.30 in 10.0 mi Calm Calm - N/A   Clear
9:53 AM 50.0 °F 39.9 °F 68% 30.31 in 10.0 mi Calm Calm - N/A   Clear
10:53 AM 55.9 °F 37.9 °F 51% 30.30 in 10.0 mi Calm Calm - N/A   Clear
11:53 AM 61.0 °F 37.0 °F 41% 30.30 in 10.0 mi SSW 4.6 mph - N/A   Clear
12:53 PM 62.1 °F 35.1 °F 37% 30.29 in 10.0 mi Variable 3.5 mph - N/A   Clear
1:53 PM 66.0 °F 35.1 °F 32% 30.25 in 10.0 mi Calm Calm - N/A   Clear
2:53 PM 68.0 °F 34.0 °F 28% 30.21 in 10.0 mi Variable 4.6 mph - N/A   Clear
3:53 PM 69.1 °F 30.9 °F 24% 30.20 in 10.0 mi Variable 3.5 mph - N/A   Clear
4:53 PM 70.0 °F 30.0 °F 23% 30.19 in 10.0 mi Variable 5.8 mph - N/A   Clear
5:53 PM 69.1 °F 30.9 °F 24% 30.19 in 10.0 mi SE 4.6 mph - N/A   Clear
6:53 PM 66.9 °F 34.0 °F 30% 30.18 in 10.0 mi SE 3.5 mph - N/A   Clear
7:53 PM 64.0 °F 35.1 °F 34% 30.19 in 10.0 mi East 3.5 mph - N/A   Clear
8:53 PM 59.0 °F 37.9 °F 46% 30.21 in 10.0 mi Calm Calm - N/A   Clear
9:53 PM 59.0 °F 37.9 °F 46% 30.21 in 10.0 mi ESE 3.5 mph - N/A   Clear
10:53 PM 57.0 °F 39.0 °F 51% 30.22 in 10.0 mi Variable 3.5 mph - N/A   Clear
11:53 PM 55.0 °F 39.0 °F 55% 30.22 in 10.0 mi Calm Calm - N/A   Clear
12:53 AM 53.1 °F 35.1 °F 50% 30.21 in 10.0 mi Calm Calm - N/A   Clear